Previsão horária em Cedrowice

Hoje, 25 Julho, Domingo

Tempo Temperatura Precipitação Vento Pressão Humidade
00:00 +20°C° 0 mm 3 m/s 749 mmHg 67%
01:00 +20°C° 0 mm 3 m/s 749 mmHg 66%
02:00 +20°C° 0 mm 3 m/s 749 mmHg 68%
03:00 +20°C° 0 mm 3 m/s 749 mmHg 70%
04:00 +19°C° 0 mm 3 m/s 749 mmHg 71%
05:00 +20°C° 0 mm 3 m/s 749 mmHg 70%
06:00 +21°C° 0 mm 3 m/s 749 mmHg 68%
07:00 +22°C° 0 mm 3 m/s 749 mmHg 66%
08:00 +25°C° 0 mm 3 m/s 749 mmHg 60%
09:00 +27°C° 0 mm 3 m/s 749 mmHg 54%
10:00 +28°C° 0 mm 3 m/s 749 mmHg 49%
11:00 +29°C° 0 mm 3 m/s 749 mmHg 46%
12:00 +30°C° 0 mm 4 m/s 749 mmHg 43%
13:00 +30°C° 0 mm 4 m/s 748 mmHg 40%
14:00 +29°C° 0.1 mm 4 m/s 749 mmHg 47%
15:00 +27°C° 0.1 mm 4 m/s 749 mmHg 53%
16:00 +26°C° 0.1 mm 3 m/s 749 mmHg 60%
17:00 +25°C° 0 mm 3 m/s 749 mmHg 65%
18:00 +24°C° 0 mm 2 m/s 749 mmHg 69%
19:00 +23°C° 0 mm 1 m/s 749 mmHg 74%
20:00 +23°C° 0 mm 1 m/s 749 mmHg 74%
21:00 +21°C° 0 mm 2 m/s 749 mmHg 74%
22:00 +21°C° 0 mm 2 m/s 749 mmHg 73%
23:00 +21°C° 0 mm 3 m/s 749 mmHg 72%

Amanhã, 26 Julho, Segunda-feira

Tempo Temperatura Precipitação Vento Pressão Humidade
00:00 +21°C° 0 mm 4 m/s 748 mmHg 71%
01:00 +21°C° 0 mm 4 m/s 748 mmHg 70%
02:00 +21°C° 0 mm 4 m/s 748 mmHg 71%
03:00 +21°C° 0 mm 4 m/s 748 mmHg 72%
04:00 +20°C° 0 mm 4 m/s 747 mmHg 73%
05:00 +21°C° 0 mm 4 m/s 747 mmHg 70%
06:00 +22°C° 0 mm 5 m/s 747 mmHg 68%
07:00 +23°C° 0 mm 5 m/s 747 mmHg 65%
08:00 +25°C° 0 mm 4 m/s 747 mmHg 62%
09:00 +26°C° 0 mm 4 m/s 747 mmHg 59%
10:00 +28°C° 0 mm 4 m/s 748 mmHg 56%
11:00 +28°C° 0 mm 4 m/s 747 mmHg 53%
12:00 +29°C° 0 mm 4 m/s 747 mmHg 51%
13:00 +30°C° 0 mm 4 m/s 747 mmHg 48%
14:00 +29°C° 0.3 mm 4 m/s 747 mmHg 52%
15:00 +28°C° 0.3 mm 4 m/s 747 mmHg 57%
16:00 +28°C° 0.3 mm 4 m/s 747 mmHg 61%
17:00 +26°C° 0.5 mm 3 m/s 747 mmHg 69%
18:00 +25°C° 0.5 mm 3 m/s 747 mmHg 76%
19:00 +23°C° 0.5 mm 2 m/s 747 mmHg 84%
20:00 +23°C° 0.1 mm 2 m/s 747 mmHg 85%
21:00 +21°C° 0.1 mm 2 m/s 747 mmHg 86%
22:00 +21°C° 0.1 mm 2 m/s 747 mmHg 88%
23:00 +20°C° 0 mm 2 m/s 747 mmHg 88%

Depois de amanhã, 27 Julho, Terça-feira

Tempo Temperatura Precipitação Vento Pressão Humidade
00:00 +20°C° 0 mm 2 m/s 747 mmHg 88%
01:00 +20°C° 0 mm 2 m/s 747 mmHg 88%
02:00 +20°C° 0 mm 2 m/s 747 mmHg 87%
03:00 +20°C° 0 mm 2 m/s 747 mmHg 86%
04:00 +20°C° 0 mm 2 m/s 747 mmHg 85%
05:00 +20°C° 0 mm 2 m/s 748 mmHg 83%
06:00 +21°C° 0 mm 2 m/s 748 mmHg 82%
07:00 +22°C° 0 mm 3 m/s 748 mmHg 80%
08:00 +22°C° 0.2 mm 3 m/s 748 mmHg 79%
09:00 +22°C° 0.2 mm 3 m/s 749 mmHg 78%
10:00 +23°C° 0.2 mm 4 m/s 749 mmHg 77%
11:00 +23°C° 0.2 mm 4 m/s 749 mmHg 75%
12:00 +24°C° 0.2 mm 3 m/s 749 mmHg 72%
13:00 +25°C° 0.2 mm 3 m/s 749 mmHg 69%
14:00 +26°C° 0 mm 3 m/s 749 mmHg 65%
15:00 +26°C° 0 mm 4 m/s 749 mmHg 60%
16:00 +27°C° 0 mm 5 m/s 749 mmHg 55%
17:00 +26°C° 0 mm 4 m/s 749 mmHg 60%
18:00 +25°C° 0 mm 4 m/s 749 mmHg 65%
19:00 +23°C° 0 mm 4 m/s 749 mmHg 70%
20:00 +22°C° 0.2 mm 3 m/s 749 mmHg 73%
21:00 +21°C° 0.2 mm 3 m/s 749 mmHg 76%
22:00 +20°C° 0.2 mm 3 m/s 750 mmHg 80%
23:00 +20°C° 0 mm 3 m/s 750 mmHg 81%

28 Julho, Quarta-feira

Tempo Temperatura Precipitação Vento Pressão Humidade
00:00 +20°C° 0 mm 3 m/s 749 mmHg 82%
01:00 +20°C° 0 mm 3 m/s 749 mmHg 83%
02:00 +19°C° 0.1 mm 3 m/s 749 mmHg 85%
03:00 +19°C° 0.1 mm 3 m/s 749 mmHg 87%
04:00 +18°C° 0.1 mm 3 m/s 749 mmHg 90%
05:00 +20°C° 0 mm 3 m/s 749 mmHg 85%
06:00 +21°C° 0 mm 3 m/s 749 mmHg 80%
07:00 +24°C° 0 mm 3 m/s 749 mmHg 75%
08:00 +25°C° 0 mm 3 m/s 749 mmHg 68%
09:00 +27°C° 0 mm 2 m/s 749 mmHg 60%
10:00 +28°C° 0 mm 2 m/s 749 mmHg 53%
11:00 +29°C° 0 mm 2 m/s 749 mmHg 48%
12:00 +30°C° 0 mm 2 m/s 749 mmHg 43%
13:00 +31°C° 0 mm 2 m/s 749 mmHg 38%
14:00 +31°C° 0 mm 2 m/s 748 mmHg 38%
15:00 +32°C° 0 mm 1 m/s 748 mmHg 37%
16:00 +32°C° 0 mm 1 m/s 748 mmHg 37%
17:00 +30°C° 0 mm 2 m/s 748 mmHg 44%
18:00 +27°C° 0 mm 4 m/s 748 mmHg 52%
19:00 +25°C° 0 mm 5 m/s 748 mmHg 60%
20:00 +22°C° 0.2 mm 5 m/s 748 mmHg 69%
21:00 +20°C° 0.2 mm 4 m/s 749 mmHg 78%
22:00 +19°C° 0.2 mm 3 m/s 749 mmHg 87%
23:00 +18°C° 0 mm 3 m/s 749 mmHg 89%

29 Julho, Quinta-feira

Tempo Temperatura Precipitação Vento Pressão Humidade
00:00 +18°C° 0 mm 3 m/s 749 mmHg 90%
01:00 +17°C° 0 mm 3 m/s 750 mmHg 92%
02:00 +17°C° 0 mm 2 m/s 750 mmHg 92%
03:00 +17°C° 0 mm 2 m/s 750 mmHg 93%
04:00 +17°C° 0 mm 2 m/s 750 mmHg 93%
05:00 +18°C° 0 mm 2 m/s 750 mmHg 87%
06:00 +19°C° 0 mm 2 m/s 750 mmHg 82%
07:00 +20°C° 0 mm 2 m/s 750 mmHg 76%
08:00 +23°C° 0 mm 2 m/s 750 mmHg 69%
09:00 +25°C° 0 mm 2 m/s 750 mmHg 61%
10:00 +26°C° 0 mm 3 m/s 750 mmHg 54%
11:00 +28°C° 0 mm 3 m/s 750 mmHg 49%
12:00 +29°C° 0 mm 3 m/s 750 mmHg 45%
13:00 +30°C° 0 mm 3 m/s 749 mmHg 41%
14:00 +30°C° 0 mm 3 m/s 749 mmHg 41%
15:00 +30°C° 0 mm 3 m/s 749 mmHg 41%
16:00 +31°C° 0 mm 3 m/s 749 mmHg 42%
17:00 +30°C° 0 mm 3 m/s 749 mmHg 47%
18:00 +28°C° 0 mm 2 m/s 748 mmHg 52%
19:00 +27°C° 0 mm 2 m/s 748 mmHg 57%
20:00 +26°C° 0.7 mm 2 m/s 748 mmHg 65%
21:00 +24°C° 0.7 mm 2 m/s 748 mmHg 74%
22:00 +23°C° 0.7 mm 2 m/s 748 mmHg 82%
23:00 +21°C° 0.5 mm 2 m/s 748 mmHg 85%

30 Julho, Sexta-feira

Tempo Temperatura Precipitação Vento Pressão Humidade
00:00 +21°C° 0.5 mm 2 m/s 749 mmHg 87%
01:00 +21°C° 0.5 mm 2 m/s 749 mmHg 90%
02:00 +21°C° 0.2 mm 2 m/s 749 mmHg 91%
03:00 +20°C° 0.2 mm 2 m/s 749 mmHg 93%
04:00 +20°C° 0.2 mm 2 m/s 749 mmHg 94%
05:00 +21°C° 0 mm 2 m/s 749 mmHg 90%
06:00 +23°C° 0 mm 2 m/s 749 mmHg 85%
07:00 +24°C° 0 mm 2 m/s 749 mmHg 81%
08:00 +25°C° 0 mm 2 m/s 749 mmHg 74%
09:00 +26°C° 0 mm 2 m/s 749 mmHg 67%
10:00 +27°C° 0 mm 2 m/s 749 mmHg 60%
11:00 +28°C° 0.1 mm 3 m/s 748 mmHg 57%
12:00 +28°C° 0.1 mm 3 m/s 748 mmHg 54%
13:00 +29°C° 0.1 mm 4 m/s 748 mmHg 51%
14:00 +29°C° 0 mm 4 m/s 748 mmHg 51%
15:00 +29°C° 0 mm 3 m/s 747 mmHg 51%
16:00 +29°C° 0 mm 3 m/s 747 mmHg 50%
17:00 +27°C° 0.1 mm 3 m/s 747 mmHg 55%
18:00 +26°C° 0.1 mm 2 m/s 747 mmHg 59%
19:00 +25°C° 0.1 mm 2 m/s 747 mmHg 63%
20:00 +24°C° 0.1 mm 2 m/s 747 mmHg 65%
21:00 +22°C° 0.1 mm 3 m/s 747 mmHg 67%
22:00 +21°C° 0.1 mm 3 m/s 747 mmHg 69%
23:00 +21°C° 0 mm 3 m/s 747 mmHg 67%
Mostrar mais

Necessitamos do seu Consentimento

A Meteoprog e os seus Fornecedores de Serviços podem armazenar e aceder a dados pessoais como cookies, identificadores do dispositivo ou outras tecnologias semelhantes existentes no seu dispositivo e processar estes dados para personalizar conteúdos e anúncios, assim como funcionalidades nas redes sociais e análise de tráfego.

  • Armazenar e/ou aceder a informações no seu dispositivo

    Os cookies, identificadores do dispositivo ou outras informações podem ser armazenados ou acedidos no seu dispositivo, para os fins acima indicados.

  • Anúncios e conteúdos personalizados, medição de anúncios e conteúdos, dados sobre o público-alvo e desenvolvimento de produtos

    Os anúncios e os conteúdos podem ser personalizados com base num perfil. Podem ser adicionados dados adicionais para uma maior personalização dos anúncios e dos conteúdos. A eficácia dos anúncios e dos conteúdos pode ser medida. Podem ser obtidas informações sobre o público que visualizou os anúncios e os conteúdos. Estes dados podem ser usados para desenvolver ou melhorar sistemas, softwares ou a experiência do utilizador.

Ao clicar em "Eu concordo”, permitirá o uso de cookies, identificadores do dispositivo e web beacons mencionados ou outras tecnologias semelhantes. As configurações do navegador do seu dispositivo podem ser alteradas.

Para certos fins, podem ser invocados interesses legítimos ao invés de consentimento. Pode ler mais informação sobre este assunto na nossa Política de Privacidade e Cookies.